User: anonymous   Login
Location: Unspecified
(0.0000°N, 0.0000°E)
Time: 03:58:08
(UTC+02:00)
Language:

Iridium 15 - Orbit

View from above orbital plane
View from above orbital plane
View from above satellite
View from above satellite

Ground track
Ground track

The orbit data is extracted from the following two-line orbital elements,

1 24869U 97034A   16241.46305931  .00000174  00000-0  55099-4 0  9991
2 24869  86.3998 144.4986 0002049  87.8462 272.2969 14.34217571  1957
Epoch (UTC): 28 August 2016 11:06:48
Eccentricity: 0.0002049
inclination: 86.3998°
perigee height: 776 km
apogee height: 779 km
right ascension of ascending node: 144.4986°
argument of perigee: 87.8462°
revolutions per day: 14.34217571
mean anomaly at epoch: 272.2969°
orbit number at epoch: 195

The dashed part of the orbit path shows where the satellite is in the earth's shadow,  

DLR